Date,TemperatureHighF,TemperatureAvgF,TemperatureLowF,DewpointHighF,DewpointAvgF,DewpointLowF,HumidityHigh,HumidityAvg,HumidityLow,PressureMaxIn,PressureMinIn,WindSpeedMaxMPH,WindSpeedAvgMPH,GustSpeedMaxMPH,PrecipitationSumIn
2013-1-1,32.0,29.4,17.2,31.6,24.6,8.9,99,83,59,30.18,30.05,3,1,6,0.00
2013-1-2,25.0,17.2,9.1,13.7,8.8,3.5,84,70,49,30.27,30.15,3,0,6,0.00
2013-1-3,32.2,19.8,6.6,20.6,11.3,0.4,82,70,51,30.31,30.21,6,1,11,0.00
2013-1-4,31.1,27.3,22.8,21.8,17.5,13.9,76,66,58,30.35,30.27,8,3,15,0.00
2013-1-5,38.7,27.8,16.7,28.1,20.2,10.5,86,73,61,30.40,30.18,4,0,8,0.00
2013-1-6,37.8,32.4,26.4,31.1,26.2,19.8,86,78,72,30.34,30.05,6,1,12,0.09
2013-1-7,34.0,29.3,24.6,26.1,22.5,18.7,85,76,65,30.51,30.30,4,0,7,0.00
2013-1-8,43.2,31.2,19.4,31.8,24.3,15.1,85,76,63,30.38,30.27,4,0,6,0.00
2013-1-9,46.6,38.8,30.2,38.8,32.1,24.1,91,77,65,30.56,30.25,5,1,10,0.06
2013-1-10,41.5,33.8,25.2,31.0,26.9,21.3,89,76,61,30.59,30.21,8,1,13,0.01
2013-1-11,59.7,49.9,41.4,52.9,44.7,30.9,96,83,66,30.21,29.96,8,1,13,0.38
2013-1-12,63.0,57.4,50.9,59.4,54.3,47.1,98,90,75,30.11,29.92,4,0,8,0.00
2013-1-13,63.3,57.4,38.3,59.3,53.9,36.0,95,88,76,30.12,29.84,8,1,14,0.74
2013-1-14,38.1,29.5,25.0,36.0,21.8,16.9,92,73,62,30.46,30.12,6,1,10,0.01
2013-1-15,31.6,27.9,23.0,21.8,19.2,16.3,78,69,63,30.42,30.12,8,2,12,0.00
2013-1-16,36.7,32.4,30.6,27.0,23.6,21.1,82,70,57,30.13,29.98,4,1,8,0.00
2013-1-17,37.6,33.3,24.6,26.9,23.0,11.9,79,66,54,30.36,30.10,5,0,9,0.00
2013-1-18,33.6,26.0,17.1,21.4,12.7,4.9,70,57,45,30.54,30.25,5,0,9,0.00
2013-1-19,50.5,41.4,32.0,27.4,22.7,19.3,63,48,30,30.25,29.91,6,0,14,0.00
2013-1-20,43.9,31.4,23.7,31.7,13.4,3.9,65,47,34,30.24,29.90,4,0,15,0.00
2013-1-21,23.9,19.3,9.3,12.4,4.6,-10.7,68,53,36,30.21,30.06,6,0,14,0.00
2013-1-22,14.5,9.9,5.5,-6.4,-10.2,-12.8,45,39,29,30.36,30.20,2,0,8,0.00
2013-1-23,20.8,14.8,8.6,8.7,-3.9,-10.4,69,44,27,30.34,30.11,3,0,8,0.00
2013-1-24,19.4,16.0,12.2,8.9,3.2,-0.5,70,57,43,30.59,30.10,3,0,8,0.00
2013-1-25,25.2,19.2,15.1,15.9,7.3,-1.5,76,60,44,30.50,30.06,2,0,5,0.00
2013-1-26,30.6,24.5,14.9,19.0,13.8,4.6,76,64,50,30.48,30.14,1,0,3,0.00
2013-1-27,34.7,24.2,10.2,26.9,12.8,0.6,81,62,50,30.52,30.27,0,0,3,0.00
2013-1-28,49.5,42.3,32.0,47.7,39.9,26.9,96,91,81,30.27,30.06,5,0,8,0.00
2013-1-29,65.1,55.5,47.7,54.2,50.4,46.9,97,84,66,30.11,29.73,3,0,8,0.00
2013-1-30,62.6,54.3,34.2,55.4,48.5,25.8,91,81,71,29.73,29.31,7,0,16,0.00
2013-1-31,34.0,25.5,18.0,25.9,15.3,5.8,78,65,47,29.97,29.51,5,0,17,0.00
2013-2-1,17.8,11.8,6.6,9.9,-1.6,-6.3,71,54,46,30.39,29.97,2,0,5,0.00
2013-2-2,27.1,19.8,9.3,20.2,11.3,-2.8,80,69,56,30.36,30.02,1,0,4,0.00
2013-2-3,26.4,21.3,16.7,18.2,12.1,5.0,77,67,53,30.13,29.94,0,0,4,0.00
2013-2-4,31.1,23.3,13.3,25.7,15.3,6.0,86,71,53,30.13,29.88,0,0,0,0.00
2013-2-5,32.7,28.9,25.3,25.7,21.7,18.6,86,74,62,30.03,29.89,57,0,0,0.00
2013-2-6,33.6,29.5,22.6,25.9,19.1,13.4,79,65,50,30.34,30.03,0,0,0,0.00
2013-2-7,45.1,35.9,22.6,31.5,24.4,13.0,72,63,52,30.30,29.89,0,0,0,0.00
2013-2-8,43.0,33.8,25.5,37.7,25.7,13.3,90,72,58,30.34,29.83,2,0,4,0.00
2013-2-9,34.3,26.5,18.9,16.8,14.0,10.8,77,59,46,30.47,30.32,0,0,0,0.00
2013-2-10,44.1,37.4,27.1,23.6,19.9,12.7,58,49,44,30.32,30.12,0,0,0,0.00
2013-2-11,44.1,44.1,44.1,23.6,23.6,23.6,44,44,44,30.13,30.13,0,0,0,0.00
2013-2-12,44.1,44.1,44.1,23.6,23.6,23.6,44,44,44,30.13,30.13,0,0,0,0.00
2013-2-13,44.1,44.1,44.1,23.6,23.6,23.6,44,44,44,30.13,30.13,0,0,0,0.00
2013-2-14,44.1,44.1,44.1,23.6,23.6,23.6,44,44,44,30.13,30.13,0,0,0,0.00
2013-2-15,44.1,44.1,44.1,23.6,23.6,23.6,44,44,44,30.13,30.13,0,0,0,0.00
2013-2-16,44.1,44.1,44.1,23.6,23.6,23.6,44,44,44,30.13,30.13,0,0,0,0.00
2013-2-17,44.1,44.1,44.1,23.6,23.6,23.6,44,44,44,30.13,30.13,0,0,0,0.00